TimeCST,TemperatureF,Dew PointF,Humidity,Sea Level PressureIn,VisibilityMPH,Wind Direction,Wind SpeedMPH,Gust SpeedMPH,PrecipitationIn,Events,Conditions,WindDirDegrees,DateUTC
12:15 AM,41.0,31.1,68,29.88,10.0,NE,5.8,-,N/A,,Clear,50,2013-02-27 06:15:00
12:35 AM,40.3,31.1,70,29.87,10.0,NE,5.8,-,N/A,,Clear,40,2013-02-27 06:35:00
12:55 AM,39.0,31.1,73,29.88,10.0,North,6.9,-,N/A,,Clear,10,2013-02-27 06:55:00
1:15 AM,37.9,31.3,77,29.90,10.0,NNW,6.9,-,N/A,,Clear,340,2013-02-27 07:15:00
1:35 AM,36.5,31.5,82,29.91,10.0,North,8.1,-,N/A,,Clear,360,2013-02-27 07:35:00
1:55 AM,36.5,31.1,81,29.91,10.0,North,5.8,-,N/A,,Clear,10,2013-02-27 07:55:00
2:15 AM,36.1,30.9,81,29.92,10.0,North,8.1,-,N/A,,Clear,10,2013-02-27 08:15:00
2:35 AM,35.8,30.7,82,29.91,10.0,NNE,5.8,-,N/A,,Clear,30,2013-02-27 08:35:00
2:55 AM,34.7,30.6,85,29.93,10.0,North,9.2,-,N/A,,Clear,350,2013-02-27 08:55:00
3:15 AM,34.7,30.7,85,29.95,10.0,North,9.2,-,N/A,,Clear,350,2013-02-27 09:15:00
3:35 AM,33.8,31.1,90,29.96,10.0,NNW,11.5,-,N/A,,Clear,340,2013-02-27 09:35:00
3:55 AM,33.8,31.6,92,29.96,10.0,North,10.4,-,N/A,,Clear,350,2013-02-27 09:55:00
4:15 AM,33.4,31.1,91,29.98,10.0,NNW,12.7,-,N/A,,Clear,330,2013-02-27 10:15:00
4:35 AM,33.3,30.6,90,29.99,10.0,North,4.6,-,N/A,,Scattered Clouds,360,2013-02-27 10:35:00
4:55 AM,33.1,30.6,90,29.99,10.0,North,4.6,-,N/A,,Mostly Cloudy,360,2013-02-27 10:55:00
5:15 AM,32.9,30.6,91,30.01,10.0,NNW,6.9,-,N/A,,Mostly Cloudy,340,2013-02-27 11:15:00
5:35 AM,33.3,30.7,90,30.03,10.0,NNW,6.9,-,N/A,,Overcast,330,2013-02-27 11:35:00
5:55 AM,33.6,30.7,89,30.03,10.0,NNW,6.9,-,N/A,,Overcast,330,2013-02-27 11:55:00
6:15 AM,33.8,30.4,87,30.04,10.0,NW,5.8,-,N/A,,Mostly Cloudy,310,2013-02-27 12:15:00
6:55 AM,33.8,30.7,89,30.06,10.0,NW,8.1,-,N/A,,Overcast,310,2013-02-27 12:55:00
7:15 AM,33.4,29.8,87,30.07,10.0,NW,6.9,-,N/A,,Scattered Clouds,310,2013-02-27 13:15:00
7:35 AM,33.4,29.3,85,30.09,10.0,WNW,6.9,-,N/A,,Clear,300,2013-02-27 13:35:00
7:55 AM,34.7,29.1,80,30.10,10.0,NW,5.8,-,N/A,,Clear,310,2013-02-27 13:55:00
8:15 AM,36.3,28.9,75,30.12,10.0,NW,6.9,-,N/A,,Clear,310,2013-02-27 14:15:00
8:35 AM,37.8,28.4,69,30.13,10.0,NW,10.4,-,N/A,,Clear,310,2013-02-27 14:35:00
9:15 AM,40.8,27.5,59,30.15,10.0,NW,11.5,-,N/A,,Clear,310,2013-02-27 15:15:00
9:35 AM,42.8,26.2,52,30.15,10.0,NW,10.4,18.4,N/A,,Clear,320,2013-02-27 15:35:00
9:55 AM,43.7,23.5,45,30.17,10.0,NW,16.1,24.2,N/A,,Clear,320,2013-02-27 15:55:00
10:15 AM,44.2,23.5,44,30.17,10.0,NW,15.0,21.9,N/A,,Clear,310,2013-02-27 16:15:00
10:35 AM,45.1,22.8,41,30.18,10.0,WNW,15.0,-,N/A,,Clear,300,2013-02-27 16:35:00
10:55 AM,45.9,21.6,38,30.17,10.0,WNW,17.3,20.7,N/A,,Clear,300,2013-02-27 16:55:00
11:15 AM,48.2,24.6,40,30.18,10.0,WNW,13.8,19.6,N/A,,Clear,300,2013-02-27 17:15:00
11:35 AM,48.6,25.3,40,30.18,10.0,NW,15.0,20.7,N/A,,Clear,310,2013-02-27 17:35:00
11:55 AM,49.5,24.3,37,30.18,10.0,NW,17.3,23.0,N/A,,Clear,310,2013-02-27 17:55:00
12:15 PM,50.0,23.4,35,30.18,10.0,WNW,18.4,29.9,N/A,,Clear,300,2013-02-27 18:15:00
12:35 PM,51.1,22.6,33,30.18,10.0,WNW,15.0,26.5,N/A,,Clear,300,2013-02-27 18:35:00
12:55 PM,52.3,23.2,32,30.17,10.0,WNW,17.3,24.2,N/A,,Clear,300,2013-02-27 18:55:00
1:15 PM,52.5,20.8,29,30.17,10.0,NW,18.4,28.8,N/A,,Clear,310,2013-02-27 19:15:00
1:35 PM,53.2,21.6,29,30.16,10.0,WNW,20.7,26.5,N/A,,Clear,300,2013-02-27 19:35:00
1:55 PM,53.8,19.6,26,30.16,10.0,NW,18.4,28.8,N/A,,Clear,310,2013-02-27 19:55:00
2:15 PM,53.2,19.8,27,30.16,10.0,NNW,18.4,32.2,N/A,,Clear,330,2013-02-27 20:15:00
2:35 PM,54.3,19.8,26,30.16,10.0,NW,24.2,32.2,N/A,,Clear,310,2013-02-27 20:35:00
2:55 PM,54.5,18.1,24,30.16,10.0,NNW,19.6,31.1,N/A,,Clear,340,2013-02-27 20:55:00
3:15 PM,53.6,19.0,26,30.16,10.0,NNW,21.9,31.1,N/A,,Clear,340,2013-02-27 21:15:00
3:35 PM,54.5,18.7,25,30.16,10.0,NW,17.3,29.9,N/A,,Clear,320,2013-02-27 21:35:00
3:55 PM,54.1,19.9,26,30.16,10.0,NNW,18.4,29.9,N/A,,Clear,340,2013-02-27 21:55:00
4:15 PM,53.6,20.1,27,30.16,10.0,NNW,23.0,31.1,N/A,,Clear,340,2013-02-27 22:15:00
4:35 PM,53.1,21.7,29,30.17,10.0,NW,18.4,31.1,N/A,,Clear,320,2013-02-27 22:35:00
4:55 PM,52.7,22.5,31,30.16,10.0,NNW,21.9,27.6,N/A,,Clear,340,2013-02-27 22:55:00
5:15 PM,52.2,23.7,33,30.17,10.0,NNW,21.9,28.8,N/A,,Clear,330,2013-02-27 23:15:00
5:35 PM,51.3,25.5,37,30.17,10.0,NNW,18.4,24.2,N/A,,Clear,340,2013-02-27 23:35:00
5:55 PM,49.6,27.7,43,30.18,10.0,NNW,20.7,25.3,N/A,,Clear,340,2013-02-27 23:55:00
6:15 PM,48.2,28.6,47,30.19,10.0,NNW,15.0,20.7,N/A,,Clear,340,2013-02-28 00:15:00
6:35 PM,46.8,29.3,51,30.19,10.0,NNW,13.8,17.3,N/A,,Clear,330,2013-02-28 00:35:00
6:55 PM,45.7,29.5,53,30.20,10.0,NNW,12.7,-,N/A,,Clear,340,2013-02-28 00:55:00
7:15 PM,44.6,29.3,55,30.21,10.0,NNW,9.2,-,N/A,,Clear,340,2013-02-28 01:15:00
7:35 PM,42.8,29.3,59,30.21,10.0,NNW,5.8,-,N/A,,Clear,340,2013-02-28 01:35:00
7:55 PM,41.9,29.3,61,30.22,10.0,NNW,4.6,-,N/A,,Clear,330,2013-02-28 01:55:00
8:15 PM,41.0,29.3,63,30.22,10.0,NNW,3.5,-,N/A,,Clear,340,2013-02-28 02:15:00
8:35 PM,41.0,29.3,63,30.22,10.0,NNW,3.5,-,N/A,,Clear,340,2013-02-28 02:35:00
8:55 PM,39.4,29.3,67,30.22,10.0,NNW,3.5,-,N/A,,Clear,340,2013-02-28 02:55:00
9:15 PM,39.0,29.3,68,30.23,10.0,NNW,4.6,-,N/A,,Clear,330,2013-02-28 03:15:00
9:35 PM,38.3,29.8,72,30.24,10.0,NW,5.8,-,N/A,,Clear,320,2013-02-28 03:35:00
9:55 PM,37.6,29.8,74,30.25,10.0,NW,4.6,-,N/A,,Clear,320,2013-02-28 03:55:00
10:15 PM,37.6,29.8,74,30.26,10.0,Calm,Calm,-,N/A,,Clear,0,2013-02-28 04:15:00
10:35 PM,36.5,29.8,77,30.26,10.0,NNW,4.6,-,N/A,,Clear,340,2013-02-28 04:35:00
10:55 PM,35.1,29.7,81,30.26,10.0,NNW,4.6,-,N/A,,Clear,340,2013-02-28 04:55:00
11:15 PM,35.6,29.3,78,30.26,10.0,North,3.5,-,N/A,,Clear,350,2013-02-28 05:15:00